User: anonymous   Login
Location: Unspecified
(48.1170°N, 0.0000°E)
Time: 19:46:07
(UTC+00:00)
Language:

First-Move - Orbit

View from above orbital plane
View from above orbital plane
View from above satellite
View from above satellite

Ground track
Ground track

The orbit data is extracted from the following two-line orbital elements,

1 39439U 13066Z   19237.49168090  .00000264  00000-0  38589-4 0  9992
2 39439  97.5706 247.1647 0065607 170.7739 189.4697 14.81875622310982
Epoch (UTC): 25 August 2019 11:48:01
Eccentricity: 0.0065607
inclination: 97.5706°
perigee height: 577 km
apogee height: 669 km
right ascension of ascending node: 247.1647°
argument of perigee: 170.7739°
revolutions per day: 14.81875622
mean anomaly at epoch: 189.4697°
orbit number at epoch: 31098

The dashed part of the orbit path shows where the satellite is in the earth's shadow,  

DLR